Wind_Speed
30 29 29 29 29 29 29 29 29 29 29 29 29 29 30 29 28 28 27 28 28 28 29 29 29 30 31 32 32 32 32 33 34 34 34 33 33 33 33 34 34 34 34
29 29 28 28 28 28 29 29 29 29 28 28 28 28 28 27 26 26 27 27 27 27 28 28 28 29 30 30 31 31 31 32 32 33 32 32 32 31 30 30 31 32 33
29 28 27 27 27 27 27 28 28 28 28 28 28 27 27 26 26 26 26 26 26 26 27 27 27 27 28 28 29 29 29 29 29 30 30 29 29 29 29 29 30 29 29
28 27 27 26 26 27 27 26 27 27 27 27 27 26 26 25 25 25 25 24 24 25 25 25 25 25 25 25 26 26 26 27 27 27 27 27 27 27 28 28 28 28 29
26 27 26 26 26 26 26 26 26 26 25 25 24 24 24 23 23 23 23 23 23 23 23 23 23 23 23 23 24 24 24 24 25 24 24 25 25 26 26 26 26 27 28
26 26 25 25 25 25 25 24 24 23 22 22 22 22 21 21 20 20 21 21 21 20 20 20 21 21 21 21 21 21 21 21 21 21 21 22 22 22 23 23 24 25 24
25 25 24 24 24 23 21 21 21 20 20 19 19 19 18 18 17 17 17 18 19 18 18 19 19 19 19 18 18 18 18 17 18 19 19 19 19 20 20 20 21 20 21
22 22 22 21 20 20 19 19 19 18 17 17 16 16 15 15 14 14 13 14 15 15 16 16 15 15 16 15 15 15 15 15 16 16 16 16 16 16 17 17 17 18 18
20 19 19 18 17 17 16 15 15 15 14 13 13 13 12 12 12 12 11 12 12 12 13 13 12 12 12 13 13 13 13 13 13 13 13 14 14 14 15 15 14 14 14
16 16 15 14 14 14 13 12 12 13 12 11 11 11 10 10 9 10 10 10 10 10 9 9 10 10 10 10 10 10 10 10 10 11 11 11 11 11 11 11 12 11 11
14 14 13 13 13 12 11 11 10 9 9 9 9 9 9 8 8 7 6 6 7 7 7 7 7 7 7 6 7 7 7 7 7 8 8 8 8 8 8 9 9 9 10
12 11 11 11 11 10 9 8 7 7 7 7 7 7 6 6 6 5 4 4 4 4 4 4 4 5 5 4 4 3 4 5 5 6 6 6 6 6 7 7 7 7 8
10 9 9 8 8 7 7 6 5 5 5 5 5 5 5 4 3 3 4 3 2 3 2 2 2 3 3 3 3 3 3 3 3 4 4 4 4 5 6 6 7 7 7
8 7 7 6 6 6 5 5 5 4 4 5 5 5 5 4 4 3 4 4 4 3 4 4 5 5 5 5 4 3 4 4 4 4 4 4 4 5 5 6 6 7 8
8 7 7 6 6 6 5 5 5 5 5 5 6 6 6 6 5 6 6 6 7 7 7 7 7 7 7 6 5 5 5 5 5 4 4 5 5 6 6 6 7 7 8
9 8 8 7 7 7 7 7 7 6 7 7 7 7 8 8 8 8 9 9 9 9 9 8 8 7 7 7 6 6 6 6 6 6 6 6 6 6 7 7 7 8 8
10 10 10 9 9 9 9 9 9 9 9 10 10 10 11 11 11 11 11 10 10 10 9 8 8 8 8 8 8 7 7 7 8 8 8 7 8 8 8 8 8 9 9
11 11 11 11 10 10 11 11 11 11 12 13 13 13 13 13 12 12 12 12 11 10 10 9 9 10 10 9 9 8 8 8 8 8 8 9 9 9 9 9 9 10 10
12 12 12 12 12 12 13 13 13 13 14 14 15 15 14 14 14 14 13 12 12 11 11 11 11 11 11 11 10 9 9 9 9 9 9 10 10 10 10 10 11 11 12
12 13 13 13 13 14 14 14 14 14 14 15 15 15 15 15 14 14 14 14 13 12 12 12 12 12 12 12 11 10 10 9 9 9 10 11 11 11 12 12 13 13 14
12 13 13 13 14 14 14 14 14 14 15 15 15 15 15 15 14 14 14 13 13 13 13 13 13 12 12 12 12 11 11 11 11 11 11 12 12 13 13 14 15 16 17
12 13 13 13 14 14 14 14 14 14 15 15 14 15 15 15 14 14 14 14 14 14 13 13 13 12 12 12 12 12 12 12 12 13 13 13 14 14 15 15 16 18 19
11 12 12 13 14 14 14 14 14 14 14 13 14 14 14 13 13 13 14 14 13 13 13 13 13 13 13 13 13 13 13 12 13 15 15 15 16 16 17 17 18 19 20
10 11 11 12 12 13 13 13 13 13 12 12 13 13 12 12 13 13 13 13 13 13 13 13 13 13 13 14 14 14 14 14 15 16 16 17 17 18 19 19 20 21 22
9 9 10 11 11 11 11 12 12 12 12 12 12 12 12 11 12 12 12 12 12 12 13 13 13 13 14 14 14 15 16 16 17 18 18 19 20 20 21 22 22 23 24
7 8 8 9 9 9 10 10 10 10 11 11 11 11 11 11 10 11 11 11 12 12 13 13 14 14 15 15 16 17 17 18 19 20 20 21 22 23 24 24 25 26 27
Wind_Direction
295 294 293 292 291 289 289 289 289 289 288 287 286 286 284 282 280 279 277 275 274 273 273 274 273 271 271 270 270 271 272 273 275 273 273 273 273 274 273 272 272 274 275
296 294 293 292 290 291 290 290 289 289 287 285 286 287 286 284 282 280 279 277 276 275 275 275 273 272 272 272 272 272 273 275 276 276 276 275 275 275 275 274 274 275 275
296 294 295 293 292 292 292 290 289 288 287 287 287 286 286 285 282 280 279 276 275 274 274 274 274 275 275 275 275 275 276 277 277 275 275 275 277 278 278 278 277 277 276
295 295 295 294 292 292 292 291 290 289 289 288 288 287 286 284 281 279 277 275 274 273 273 273 275 276 276 277 277 276 276 276 276 275 275 276 278 278 278 278 277 278 277
296 296 296 294 292 292 292 293 293 292 289 288 288 287 286 284 281 278 276 274 275 274 274 274 275 275 276 277 278 278 276 276 276 276 275 276 277 277 278 277 276 276 277
296 297 298 295 293 294 293 294 295 295 292 289 290 289 287 285 282 275 273 272 273 273 273 274 275 276 278 279 279 279 278 278 279 279 277 278 279 278 277 276 276 278 279
297 297 296 296 296 296 294 295 295 296 295 294 293 291 288 285 281 276 274 273 273 273 273 273 275 276 278 280 280 280 280 280 281 280 282 283 283 280 278 279 279 280 282
300 300 298 297 297 299 299 297 295 297 297 297 296 293 291 288 283 280 275 274 273 273 272 272 273 275 276 281 282 282 282 281 283 285 285 286 286 284 283 282 281 281 284
302 302 303 302 302 303 303 303 301 299 300 299 298 299 295 293 287 284 278 276 278 278 277 275 274 273 275 279 282 284 284 284 287 288 289 288 288 289 289 286 285 285 285
304 304 306 306 308 309 307 304 303 303 303 301 299 299 298 300 294 287 282 281 282 283 281 279 277 279 280 278 280 286 288 289 291 293 294 294 294 297 296 293 293 293 292
309 309 309 308 311 312 310 309 309 310 311 309 307 303 304 304 301 302 295 290 288 292 293 289 288 290 289 287 285 286 289 292 291 293 295 295 296 301 302 301 299 297 296
314 315 315 313 312 312 314 319 320 321 322 321 322 320 318 315 310 311 310 314 308 317 322 312 306 307 302 293 302 311 312 310 309 310 307 307 305 307 312 313 312 307 301
324 321 324 327 324 327 329 333 334 336 338 343 347 350 349 346 341 335 343 342 354 12 11 2 6 10 21 30 27 17 4 352 337 335 331 327 327 327 326 326 324 322 317
338 339 342 345 350 359 3 6 7 5 7 11 14 19 25 31 35 36 43 53 55 50 54 57 61 57 50 53 47 38 27 15 5 350 340 344 350 348 341 337 333 331 326
4 10 15 20 25 30 33 36 37 39 40 40 43 47 49 53 57 62 66 67 68 73 74 72 70 64 59 55 49 40 32 23 23 21 17 12 3 355 349 346 343 338 334
29 35 38 40 46 48 48 50 54 56 57 59 59 58 62 68 71 74 75 73 74 75 74 70 64 57 51 49 49 47 44 42 37 30 23 13 6 1 357 354 351 347 344
49 49 49 52 54 55 56 61 66 69 67 65 68 72 74 76 76 77 78 78 78 75 70 65 59 54 53 53 53 51 47 43 40 35 28 21 14 8 2 356 353 350 346
55 53 53 55 60 63 66 70 72 72 73 75 76 75 75 74 75 77 77 76 72 67 64 61 58 56 54 53 52 50 46 40 36 34 30 25 18 12 7 1 356 352 346
59 59 60 64 68 72 73 74 75 76 77 77 77 76 75 76 76 75 73 70 67 63 62 60 58 56 54 51 49 46 42 39 35 30 24 18 14 10 6 1 355 349 345
63 65 67 69 72 74 76 77 78 78 77 76 75 75 75 75 74 72 70 67 64 61 60 58 56 55 52 48 44 40 37 32 27 19 13 8 5 2 359 356 352 348 344
67 68 69 71 73 75 76 77 78 78 77 76 74 74 75 73 71 68 66 64 62 61 59 56 54 51 47 43 40 36 30 22 16 11 6 1 357 354 350 348 346 344 342
68 69 71 73 74 75 75 76 77 78 76 74 75 76 74 71 68 64 60 58 56 55 53 50 48 45 41 36 33 29 23 16 10 5 2 357 352 348 344 342 340 338 336
71 71 72 75 76 76 75 76 76 75 74 73 74 72 70 66 61 58 56 54 53 51 49 46 42 37 32 28 24 19 13 8 3 359 357 352 348 345 342 339 336 334 333
75 75 75 77 76 74 74 75 74 74 73 71 68 64 62 60 58 56 55 52 51 48 44 39 34 30 25 20 16 11 7 3 359 356 352 349 346 343 340 337 336 334 331
79 80 79 77 74 74 74 74 74 74 72 68 63 60 57 56 55 52 50 46 43 39 34 29 24 20 16 13 10 6 2 358 354 350 348 345 343 340 338 336 334 332 329
83 83 82 79 75 75 75 75 73 70 66 62 59 56 54 52 50 45 40 36 33 29 25 21 16 13 9 6 2 358 355 352 349 347 345 342 339 336 334 332 331 329 328
Height
5778 5775 5773 5771 5769 5767 5766 5764 5762 5761 5760 5759 5757 5756 5755 5754 5753 5753 5753 5753 5754 5754 5755 5755 5756 5756 5757 5757 5758 5758 5759 5760 5760 5761 5761 5761 5762 5763 5763 5763 5763 5764 5764
5770 5768 5765 5763 5761 5760 5758 5756 5755 5753 5752 5751 5750 5749 5748 5747 5746 5746 5746 5746 5746 5747 5747 5748 5748 5749 5749 5749 5750 5750 5751 5751 5752 5752 5752 5753 5753 5754 5754 5754 5755 5755 5755
5763 5761 5758 5756 5754 5752 5750 5749 5747 5746 5745 5744 5743 5742 5740 5739 5739 5739 5739 5739 5739 5740 5740 5741 5741 5741 5742 5742 5742 5743 5743 5744 5744 5744 5745 5745 5745 5746 5746 5746 5747 5747 5747
5756 5754 5751 5749 5747 5745 5743 5742 5740 5739 5737 5736 5735 5734 5733 5733 5732 5732 5732 5732 5732 5733 5733 5734 5734 5734 5735 5735 5735 5736 5736 5736 5737 5737 5738 5738 5738 5738 5738 5738 5738 5739 5739
5749 5747 5744 5742 5740 5738 5736 5735 5734 5732 5731 5730 5729 5727 5727 5726 5726 5725 5725 5725 5726 5726 5727 5727 5728 5728 5728 5729 5729 5729 5730 5730 5730 5731 5731 5731 5731 5731 5731 5731 5731 5731 5730
5743 5740 5738 5736 5734 5732 5730 5729 5728 5726 5725 5723 5722 5721 5721 5720 5719 5719 5719 5720 5720 5720 5721 5722 5722 5722 5723 5723 5723 5723 5724 5724 5724 5724 5724 5724 5724 5724 5724 5724 5724 5724 5723
5737 5734 5732 5730 5728 5726 5725 5724 5722 5720 5719 5718 5717 5716 5716 5715 5714 5714 5714 5714 5715 5715 5715 5716 5717 5717 5717 5718 5718 5718 5718 5718 5719 5719 5718 5718 5718 5717 5717 5717 5717 5717 5717
5731 5729 5727 5725 5723 5721 5720 5718 5717 5716 5715 5714 5713 5712 5711 5711 5710 5710 5710 5710 5710 5710 5711 5711 5712 5712 5713 5713 5714 5713 5714 5714 5713 5713 5713 5713 5712 5712 5712 5712 5712 5712 5712
5726 5724 5722 5721 5719 5717 5716 5714 5713 5712 5711 5710 5709 5709 5708 5707 5707 5706 5707 5706 5706 5707 5707 5707 5708 5708 5709 5709 5710 5710 5709 5709 5709 5709 5708 5708 5708 5708 5708 5708 5707 5707 5707
5722 5720 5719 5717 5715 5714 5712 5711 5710 5709 5708 5707 5706 5706 5705 5705 5704 5704 5703 5703 5704 5704 5704 5704 5705 5705 5706 5706 5706 5706 5706 5706 5706 5706 5705 5705 5705 5704 5704 5704 5704 5703 5703
5719 5717 5716 5714 5713 5711 5710 5709 5708 5707 5706 5705 5704 5704 5703 5703 5702 5702 5701 5701 5702 5702 5702 5702 5702 5703 5703 5703 5704 5704 5704 5704 5704 5704 5703 5703 5702 5702 5701 5701 5701 5700 5700
5717 5715 5714 5712 5711 5710 5708 5707 5706 5705 5705 5704 5703 5703 5702 5701 5701 5701 5701 5700 5700 5701 5701 5701 5701 5701 5702 5702 5702 5702 5702 5702 5702 5701 5701 5701 5700 5700 5699 5699 5698 5697 5697
5715 5714 5713 5711 5710 5709 5707 5706 5705 5705 5704 5703 5703 5702 5701 5701 5701 5701 5700 5700 5700 5700 5700 5700 5701 5701 5701 5701 5701 5702 5701 5701 5701 5701 5700 5700 5699 5699 5698 5698 5697 5696 5695
5715 5714 5712 5711 5710 5708 5707 5707 5706 5705 5704 5704 5703 5702 5702 5702 5702 5701 5701 5701 5701 5701 5701 5701 5701 5702 5702 5702 5702 5702 5702 5701 5701 5701 5700 5700 5699 5698 5698 5697 5696 5695 5694
5716 5714 5713 5712 5711 5709 5708 5708 5707 5706 5706 5705 5704 5704 5703 5703 5703 5703 5702 5703 5703 5703 5703 5703 5703 5703 5703 5703 5703 5702 5702 5702 5702 5701 5700 5700 5699 5698 5698 5697 5696 5695 5694
5717 5716 5714 5713 5712 5711 5710 5710 5709 5708 5707 5707 5706 5706 5706 5705 5705 5705 5705 5705 5705 5705 5705 5705 5705 5705 5704 5704 5704 5703 5703 5703 5702 5702 5701 5700 5699 5698 5697 5696 5695 5694 5693
5720 5718 5717 5716 5715 5714 5713 5712 5712 5711 5710 5710 5709 5709 5708 5708 5708 5708 5708 5708 5708 5708 5708 5707 5707 5707 5706 5706 5705 5705 5705 5704 5703 5702 5702 5701 5700 5699 5698 5696 5695 5694 5692
5723 5721 5720 5719 5718 5717 5716 5716 5715 5715 5714 5713 5713 5712 5712 5712 5712 5711 5711 5711 5711 5711 5711 5710 5710 5709 5708 5708 5707 5707 5706 5705 5705 5704 5703 5702 5701 5699 5698 5696 5695 5693 5691
5726 5725 5724 5722 5721 5721 5720 5720 5719 5719 5718 5718 5717 5717 5716 5716 5716 5715 5715 5715 5714 5714 5714 5713 5712 5711 5711 5710 5709 5709 5708 5707 5706 5705 5704 5703 5701 5700 5698 5696 5694 5693 5691
5730 5729 5728 5727 5726 5725 5724 5724 5723 5723 5723 5722 5722 5721 5721 5720 5720 5720 5719 5718 5718 5718 5717 5716 5715 5714 5713 5713 5712 5711 5710 5709 5708 5707 5705 5704 5702 5700 5698 5696 5694 5692 5690
5734 5733 5732 5731 5730 5729 5729 5728 5728 5728 5727 5727 5726 5726 5725 5725 5725 5724 5724 5723 5722 5721 5720 5719 5718 5717 5716 5715 5714 5713 5712 5711 5709 5708 5706 5704 5702 5700 5698 5695 5693 5690 5688
5738 5737 5736 5735 5734 5734 5733 5733 5732 5732 5731 5731 5731 5730 5730 5729 5729 5728 5727 5726 5725 5724 5723 5722 5721 5720 5719 5718 5716 5715 5713 5712 5710 5708 5706 5704 5702 5699 5697 5694 5691 5689 5686
5742 5741 5740 5739 5739 5738 5738 5737 5737 5736 5736 5736 5735 5735 5734 5734 5733 5732 5731 5730 5729 5728 5727 5725 5724 5723 5721 5719 5718 5716 5714 5712 5710 5708 5706 5703 5701 5698 5695 5692 5689 5686 5683
5745 5745 5744 5743 5743 5742 5742 5741 5741 5740 5740 5740 5739 5739 5738 5737 5736 5735 5734 5733 5732 5731 5730 5728 5727 5725 5723 5721 5719 5717 5715 5712 5710 5707 5705 5702 5699 5696 5693 5690 5686 5683 5679
5748 5748 5747 5747 5747 5746 5746 5745 5745 5744 5744 5743 5743 5742 5741 5740 5739 5739 5738 5736 5735 5734 5732 5730 5728 5726 5724 5722 5720 5718 5715 5712 5709 5706 5703 5700 5697 5694 5690 5687 5683 5679 5675
5751 5751 5750 5750 5750 5750 5749 5749 5749 5748 5747 5747 5746 5745 5744 5743 5742 5741 5740 5739 5737 5736 5734 5732 5730 5728 5725 5723 5720 5717 5715 5711 5708 5705 5702 5698 5695 5691 5687 5683 5679 5675 5671